Regional Weather Roundup
Issued by NWS

Home | Current Version | Previous Version | Graphics & Text | Print | Product List | Glossary On
Versions: 1 2 3 4 5 6 7 8 9 10 11 12 13 14 15 16 17 18 19 20 21 22 23 24 25 26 27 28 29 30 31 32 33 34 35 36 37 38 39 40 41 42 43 44 45 46 47 48 49 50
000
ASUS45 KTFX 311819
RWRMT
MONTANA REGIONAL WEATHER ROUNDUP
NATIONAL WEATHER SERVICE GREAT FALLS MT
1200 PM MDT MON AUG 31 2015

NOTE: "FAIR" INDICATES FEW OR NO CLOUDS BELOW 12000 FEET WITH NO
SIGNIFICANT WEATHER AND/OR OBSTRUCTIONS TO VISIBILITY.

MTZ001>007-043-311900-
WEST OF THE DIVIDE

CITY           SKY/WX    TMP DP  RH WIND       PRES   REMARKS
KALISPELL      CLOUDY    63  38  39 SW13G25   30.00S
MISSOULA       PTSUNNY   60  41  49 N3        30.07F
BUTTE          SUNNY     63  32  31 S12       30.09F
MULLAN PASS    PTSUNNY   45  38  76 VRB6      30.11S
DEER LODGE       N/A     63  36  36 N7        30.10F
EUREKA           N/A     61  41  48 S12G21    29.99S
HAMILTON         N/A     64  39  39 NW3       30.05F
LIBBY            N/A     59  39  47 S3        30.04S
PLAINS           N/A     67  38  34 S7        30.03F
RONAN            N/A     61  42  49 SE5       30.08F
THOMPSON FALLS   N/A     64  40  41 W10       30.07F
$$

MTZ008-052>055-311900-
SOUTHWEST MONTANA

CITY           SKY/WX    TMP DP  RH WIND       PRES   REMARKS
BOZEMAN        SUNNY     66  36  32 VRB5      30.05F
DILLON         SUNNY     69  34  27 SW15G21   30.08F
W YELLOWSTONE  MOSUNNY   61  28  29 SW17G31   30.18F
THREE FORKS      N/A     67  34  29 CALM      30.04F
TWIN BRIDGES     N/A     67  36  31 S6        30.06F
$$

MTZ009-010-012-014-046-048-049-054-311900-
EAST SLOPES AND CENTRAL MONTANA

CITY           SKY/WX    TMP DP  RH WIND       PRES   REMARKS
CUT BANK       CLOUDY    62  35  36 W39G58    29.88R
GREAT FALLS    MOSUNNY   69  33  26 SW25G35   29.93F
MALMSTROM AFB  MOSUNNY   68  33  27 SW28G36   29.94F
HELENA         SUNNY     69  35  28 NW7       30.03S
CONRAD           N/A     69  39  33 SE13      29.93S
$$

MTZ011-013-016-021-045-047-050-051-311900-
NORTH CENTRAL MONTANA

CITY           SKY/WX    TMP DP  RH WIND       PRES   REMARKS
HAVRE          MOSUNNY   71  34  25 MISG      29.86S
LEWISTOWN      MOSUNNY   68  33  27 W15G24    29.96F
N BAR RANCH      N/A     66  37  34 SE7       29.99S
CHINOOK          N/A     70  36  28 W18G26    29.85S
FORT BENTON      N/A     72  36  26 S14G24    29.89F
$$

MTZ017>020-022>027-061-062-311900-
NORTHEAST MONTANA

CITY           SKY/WX    TMP DP  RH WIND       PRES   REMARKS
GLASGOW        SUNNY     71  40  32 W15       29.87F
JORDAN           N/A     72  33  24 W14       29.92S
SIDNEY         SUNNY     73  37  27 SW14G24   29.89S
WOLF POINT     SUNNY     72  42  34 W16G24    29.88F
MALTA            N/A     72  39  30 W13       29.84S
PLENTYWOOD       N/A     70  39  32 W18G26    29.84F
SCOBEY           N/A     68  40  35 SW21      29.85S
$$

MTZ028>42-056>058-311900-
SOUTHCENTRAL AND SOUTHEAST MONTANA

CITY           SKY/WX    TMP DP  RH WIND       PRES   REMARKS
BAKER          SUNNY     71  41  33 W9        29.99F
BILLINGS       PTSUNNY   69  39  33 CALM      29.99F
LIVINGSTON     MOSUNNY   73  32  22 W14       30.00F
MILES CITY     SUNNY     72  42  34 S6        29.95F
EKALAKA          N/A     69  40  34 W3        29.99F
FORSYTH          N/A     73  39  29 CALM      29.93F
LAUREL           N/A     70  41  34 CALM      29.98F
ROUNDUP          N/A     69  37  30 S8        29.89S
$$

REGIONAL REPORTS...DAKOTAS

CITY           SKY/WX    TMP DP  RH WIND       PRES   REMARKS
WILLISTON      SUNNY     74  40  29 W15G23    29.87F
MINOT          SUNNY     74  43  32 W20G26    29.84S
DICKINSON      SUNNY     74  41  30 W15       29.93F
BEACH            N/A     70  37  30 W14       29.95F
CROSBY           N/A     72  39  30 W23G31    29.83S
BISMARCK       PTSUNNY   76  52  43 NW12      29.90R
GRAND FORKS    PTSUNNY   80  63  55 N14       29.75R
FARGO          PTSUNNY   81  65  58 W12       29.76R
BUFFALO SD       N/A     71  43  36 NW9       29.94R
RAPID CITY     CLOUDY    70  55  59 N12       30.02R
$$

REGIONAL REPORTS...WYOMING/IDAHO/WASHINGTON

CITY           SKY/WX    TMP DP  RH WIND       PRES   REMARKS
GILLETTE       SUNNY     70  45  40 SE8       30.04F
SHERIDAN       SUNNY     74  45  35 E13       30.00F
BUFFALO WY     SUNNY     68  44  42 SE21G26   30.06F
CODY           SUNNY     75  27  16 SE5       30.01F
YELLOWSTONE LA   N/A     59  27  29 SW8       30.26S
IDAHO FALLS    SUNNY     70  40  33 SW17G23   30.14S
SALMON         SUNNY     63  41  45 N6        30.05F
BOISE          SUNNY     69  43  38 W6        30.08F
SPOKANE        PTSUNNY   61  44  53 S20       30.04F
$$

REGIONAL REPORTS...ALBERTA

CITY           SKY/WX    TMP DP  RH WIND       PRES   REMARKS
EDMONTON       MOSUNNY   70  37  30 W12       29.58
CALGARY        PTSUNNY   66  36  32 W9        29.71R
LETHBRIDGE     MOSUNNY   66  39  37 SW36G44   29.78F
MEDICINE HAT   CLOUDY    73  39  29 W29G37    29.73F
WATERTON GATE    N/A     55  39  54 SW18G29     N/A
MILK RIVER       N/A     66  36  32 W25G33      N/A
$$

REGIONAL REPORTS...SASKATCHEWAN

CITY           SKY/WX    TMP DP  RH WIND       PRES   REMARKS
SWIFT CURRENT  SUNNY     68  36  30 W23G30    29.74S
REGINA         PTSUNNY   68  45  42 SW22G28   29.72S
SASKATOON      MOSUNNY   73  43  33 W16G23    29.62R
CYPRESS HILLS    N/A     63  32  31 W14G23      N/A
VAL MARIE        N/A     70  36  28 W23G30      N/A
ROCKGLEN         N/A     66  37  34 SW22G29     N/A
ASSINIBOIA       N/A     72  37  28 S2          N/A
$$



USA.gov is the U.S. government's official web portal to all federal, state and local government web resources and services.